Location: Bailey Inglish Elementary School
(33.5826°N, 96.1780°W)
Time: 15:36:51
(UTC+00:00)

BlueWalker 3 - Pass Details

Date: 25 June 2024
Orbit: 480 x 492 km, 53.2° (Epoch: 15 July)

Event Time Altitude Azimuth Distance (km) Brightness Sun altitude
Rises 08:05:07 0° 320° (NW) 2,535 5.8 -28.5°
Reaches altitude 10° 08:07:20 10° 326° (NNW) 1,654 4.9 -28.3°
Enters shadow 08:07:44 13° 328° (NNW) 1,499 4.7 -28.3°
